Location: Caltech
(34.1382°N, 118.1253°W)
Time: 12:57:57
(UTC-07:00)

Gbstr 26 Del rocket - Visible Passes

Search period start: 25 July 2014 00:00
Search period end: 04 August 2014 00:00
Orbit: 494 x 1279 km, 51.8° (Epoch: 25 July)

Date Brightness Start Highest point End Pass type
(mag) Time Alt. Az. Time Alt. Az. Time Alt. Az.
25 Jul 6.0 01:39:11 10° NW 01:39:33 12° NW 01:39:33 12° NW visible
25 Jul 6.2 22:01:45 10° NNW 22:05:11 15° N 22:08:18 10° NE visible
25 Jul 5.2 23:49:36 10° NNW 23:54:09 27° NNE 23:54:09 27° NNE visible
26 Jul 6.1 21:59:36 10° NNW 22:03:17 16° N 22:06:36 10° NE visible
26 Jul 5.0 23:47:11 10° NW 23:51:28 31° N 23:51:28 31° N visible
27 Jul 6.0 21:57:21 10° NNW 22:01:22 17° N 22:04:56 10° NE visible
27 Jul 4.9 23:44:47 10° NW 23:48:50 35° N 23:48:50 35° N visible
28 Jul 5.9 21:55:03 10° NNW 21:59:27 19° NNE 22:03:17 10° ENE visible
28 Jul 4.8 23:42:25 10° NW 23:46:15 37° NNW 23:46:15 37° NNW visible
29 Jul 5.7 21:52:43 10° NNW 21:57:30 21° NNE 22:01:03 12° ENE visible
29 Jul 4.8 23:40:04 10° NW 23:43:43 37° NW 23:43:43 37° NW visible
30 Jul 5.4 21:50:20 10° NNW 21:55:31 25° NNE 21:58:33 16° ENE visible
30 Jul 4.9 23:37:47 10° NW 23:41:13 35° NW 23:41:13 35° NW visible
31 Jul 5.1 21:47:57 10° NNW 21:53:30 29° NNE 21:56:05 20° ENE visible
31 Jul 5.0 23:35:32 10° NW 23:38:46 32° WNW 23:38:46 32° WNW visible
01 Aug 4.8 21:45:34 10° NW 21:51:27 35° NNE 21:53:41 26° ENE visible
01 Aug 5.2 23:33:22 10° WNW 23:36:22 27° WNW 23:36:22 27° WNW visible
02 Aug 4.5 21:43:11 10° NW 21:49:21 43° NNE 21:51:19 32° E visible
02 Aug 5.4 23:31:18 10° WNW 23:34:00 23° W 23:34:00 23° W visible
03 Aug 4.1 21:40:50 10° NW 21:47:12 54° NE 21:48:59 38° E visible
03 Aug 5.6 23:29:22 10° WNW 23:31:41 19° W 23:31:41 19° W visible
